User: anonymous   Login
Location: Ostrava
(49.8330°N, 18.2830°E)
Time: 21:36:43
(UTC+01:00)
Language:

Cosmos 2219 Rocket - Orbit

View from above orbital plane
View from above orbital plane
View from above satellite
View from above satellite

Ground track
Ground track

The orbit data is extracted from the following two-line orbital elements,

1 22220U 92076B   17326.82087068  .00000133  00000-0  90988-4 0  9995
2 22220  71.0006  85.3307 0011879  21.4159 144.0186 14.16425233293232
Epoch (UTC): 22 November 2017 19:42:03
Eccentricity: 0.0011879
inclination: 71.0006°
perigee height: 829 km
apogee height: 846 km
right ascension of ascending node: 85.3307°
argument of perigee: 21.4159°
revolutions per day: 14.16425233
mean anomaly at epoch: 144.0186°
orbit number at epoch: 29323

The dashed part of the orbit path shows where the satellite is in the earth's shadow,  

DLR